Location: Hartman Creek State Park
(44.3257°N, 89.2134°W)
Time: 20:48:48
(UTC-06:00)

Terra - Visible Passes

Search period start: 03 March 2015 00:00
Search period end: 13 March 2015 01:00
Orbit: 701 x 703 km, 98.2° (Epoch: 03 March)

Date Brightness Start Highest point End Pass type
(mag) Time Alt. Az. Time Alt. Az. Time Alt. Az.
09 Mar 4.6 22:20:34 11° N 22:20:34 11° N 22:20:46 10° N visible
10 Mar 4.9 23:03:41 10° NNW 23:03:41 10° NNW 23:03:44 10° NNW visible
11 Mar 4.4 22:07:54 12° N 22:07:54 12° N 22:08:17 10° N visible
12 Mar 4.6 22:51:01 12° N 22:51:01 12° N 22:51:26 10° N visible
